Station ULRA2 - 9468333 - Unalakleet, Unalakleet River, AK Image indicating link to RSS feed of recent meteorological observations for station ULRA2


Conditions at ULRA2 as of
(10:18 am AKDT)
1818 GMT on 05/26/2024:
     

Click on the graph icon in the table below to see a time series plot of the last five days of that observation.

5-day plot - Atmospheric Pressure Atmospheric Pressure (PRES):29.90 in
NOS Water Level Observation Network Water Level
Previous observations
TIME
(AKDT)
5-day plot - Wind Direction
WDIR
 
5-day plot - Wind Speed
WSPD
kts
5-day plot - Wind Gust
GST
kts
5-day plot - Wave Height
WVHT
ft
5-day plot - Dominant Wave Period
DPD
sec
5-day plot - Average Wave Period
APD
sec
5-day plot - Mean Wave Direction
MWD
 
5-day plot - Atmospheric Pressure
PRES
in
5-day plot - Pressure Tendency
PTDY
in
5-day plot - Air Temperature
ATMP
°F
5-day plot - Water Temperature
WTMP
°F
5-day plot - Dew Point
DEWP
°F
5-day plot - Salinity
SAL
psu
5-day plot - Visibility
VIS
nmi
5-day plot - Tide (above MLLW)
TIDE
ft
2024-05-26 10:12 am-------29.91-------
2024-05-26 10:06 am-------29.91-------
2024-05-26 10:00 am-------29.91+0.01------
2024-05-26 09:54 am-------29.91-------
2024-05-26 09:48 am-------29.91-------
2024-05-26 09:42 am-------29.91-------
2024-05-26 09:36 am-------29.91-------
2024-05-26 09:30 am-------29.90-------
2024-05-26 09:24 am N 7.0 14.0----29.91-------
2024-05-26 09:18 am-------29.91-------
2024-05-26 09:12 am-------29.91-------
2024-05-26 09:06 am-------29.91-------
2024-05-26 09:00 am-------29.91+0.01------
2024-05-26 08:54 am-------29.91-------
2024-05-26 08:48 am-------29.91-------
2024-05-26 08:42 am-------29.91-------
2024-05-26 08:36 am-------29.91-------
2024-05-26 08:30 am-------29.91-------
2024-05-26 08:24 amNNW 14.0 20.0----29.91- 34.5-----
2024-05-26 08:18 am-------29.91-------
2024-05-26 08:12 am-------29.91-------
2024-05-26 08:06 am-------29.91-------
2024-05-26 08:00 am-------29.91+0.03------
2024-05-26 07:54 am-------29.91-------
2024-05-26 07:48 am-------29.91-------
2024-05-26 07:42 am-------29.91-------
2024-05-26 07:36 am-------29.91-------
2024-05-26 07:30 am-------29.91-------
2024-05-26 07:24 amNNW 14.0 18.1----29.91- 34.5-----
2024-05-26 07:18 am-------29.90-------
2024-05-26 07:12 am-------29.90-------
2024-05-26 07:06 am-------29.90-------
2024-05-26 07:00 am-------29.90+0.02------
2024-05-26 06:54 am-------29.90-------
2024-05-26 06:48 am-------29.90-------
2024-05-26 06:42 am-------29.89-------
2024-05-26 06:36 am-------29.90-------
2024-05-26 06:30 am-------29.90-------
2024-05-26 06:24 amNNW 15.0 19.0----29.90- 35.4-----
2024-05-26 06:18 am-------29.90-------
2024-05-26 06:12 am-------29.90-------
2024-05-26 06:06 am-------29.90-------
2024-05-26 06:00 am-------29.89+0.03------
2024-05-26 05:54 am-------29.89-------
2024-05-26 05:48 am-------29.89-------
2024-05-26 05:42 am-------29.89-------
2024-05-26 05:36 am-------29.90-------
2024-05-26 05:30 am-------29.89-------
2024-05-26 05:24 am NW 15.0 19.0----29.89-------
2024-05-26 05:18 am-------29.89-------
2024-05-26 05:12 am-------29.88-------
2024-05-26 05:06 am-------29.88-------
2024-05-26 05:00 am-------29.88+0.02------
2024-05-26 04:54 am-------29.88-------
2024-05-26 04:48 am-------29.88-------
2024-05-26 04:42 am-------29.88-------
2024-05-26 04:36 am-------29.88-------
2024-05-26 04:30 am-------29.88-------
2024-05-26 04:24 amNNW 15.9 18.1----29.88- 37.2-----
2024-05-26 04:18 am-------29.88-------
2024-05-26 04:12 am-------29.88-------
2024-05-26 04:06 am-------29.88-------
2024-05-26 04:00 am-------29.88+0.03------
2024-05-26 03:54 am-------29.88-------
2024-05-26 03:48 am-------29.88-------
2024-05-26 03:42 am-------29.87-------
2024-05-26 03:36 am-------29.87-------
2024-05-26 03:30 am-------29.88-------
2024-05-26 03:24 amNNW 9.9 15.9----29.87- 39.2-----
2024-05-26 03:18 am-------29.87-------
2024-05-26 03:12 am-------29.87-------
2024-05-26 03:06 am-------29.86-------
2024-05-26 03:00 am-------29.86+0.02------
2024-05-26 02:54 am-------29.85-------
2024-05-26 02:48 am-------29.85-------
2024-05-26 02:42 am-------29.85-------
2024-05-26 02:36 am-------29.85-------
2024-05-26 02:30 am-------29.86-------
2024-05-26 02:24 amNNW 15.0 21.0----29.86- 41.7-----
2024-05-26 02:18 am-------29.86-------
2024-05-26 02:12 am-------29.86-------
2024-05-26 02:06 am-------29.86-------
2024-05-26 02:00 am-------29.86+0.03------
2024-05-26 01:54 am-------29.86-------
2024-05-26 01:48 am-------29.86-------
2024-05-26 01:42 am-------29.86-------
2024-05-26 01:36 am-------29.85-------
2024-05-26 01:30 am-------29.86-------
2024-05-26 01:24 am NW 15.9 18.1----29.85- 42.1-----
2024-05-26 01:18 am-------29.85-------
2024-05-26 01:12 am-------29.85-------
2024-05-26 01:06 am-------29.85-------
2024-05-26 01:00 am-------29.85+0.03------
2024-05-26 12:54 am-------29.85-------
2024-05-26 12:48 am-------29.85-------
2024-05-26 12:42 am-------29.85-------
2024-05-26 12:36 am-------29.85-------
2024-05-26 12:30 am-------29.85-------
2024-05-26 12:24 amNNW 11.1 14.0----29.85- 43.5-----
2024-05-26 12:18 am-------29.85-------
2024-05-26 12:12 am-------29.84-------
2024-05-26 12:06 am-------29.84-------
2024-05-26 12:00 am-------29.84+0.04------
2024-05-25 11:54 pm-------29.84-------
2024-05-25 11:48 pm-------29.84-------
2024-05-25 11:42 pm-------29.84-------
2024-05-25 11:36 pm-------29.84-------
2024-05-25 11:30 pm-------29.84-------
2024-05-25 11:24 pm NW 14.0 15.9----29.83- 44.6-----
2024-05-25 11:18 pm-------29.83-------
2024-05-25 11:12 pm-------29.83-------
2024-05-25 11:06 pm-------29.83-------
2024-05-25 11:00 pm-------29.83+0.04------
2024-05-25 10:54 pm-------29.82-------
2024-05-25 10:48 pm-------29.82-------
2024-05-25 10:42 pm-------29.82-------
2024-05-25 10:36 pm-------29.82-------
2024-05-25 10:30 pm-------29.82-------
2024-05-25 10:24 pmNNW 11.1 13.0----29.82- 48.2-----
2024-05-25 10:18 pm-------29.82-------
2024-05-25 10:12 pm-------29.82-------
2024-05-25 10:06 pm-------29.82-------
2024-05-25 10:00 pm-------29.82+0.04------
2024-05-25 09:54 pm-------29.81-------
2024-05-25 09:48 pm-------29.81-------
2024-05-25 09:42 pm-------29.81-------
2024-05-25 09:36 pm-------29.81-------
2024-05-25 09:30 pm-------29.81-------
2024-05-25 09:24 pm NW 15.9 21.0----29.81- 47.7-----
2024-05-25 09:18 pm-------29.80-------
2024-05-25 09:12 pm-------29.80-------
2024-05-25 09:06 pm-------29.80-------
2024-05-25 09:00 pm-------29.80+0.01------
2024-05-25 08:54 pm-------29.79-------
2024-05-25 08:48 pm-------29.79-------
2024-05-25 08:42 pm-------29.79-------
2024-05-25 08:36 pm-------29.79-------
2024-05-25 08:30 pm-------29.78-------
2024-05-25 08:24 pmNNW 22.0 27.0----29.78- 48.2-----
2024-05-25 08:18 pm-------29.78-------
2024-05-25 08:12 pm-------29.78-------
2024-05-25 08:06 pm-------29.78-------
2024-05-25 08:00 pm-------29.78+0.02------
2024-05-25 07:54 pm-------29.78-------
2024-05-25 07:48 pm-------29.78-------
2024-05-25 07:42 pm-------29.78-------
2024-05-25 07:36 pm-------29.78-------
2024-05-25 07:30 pm-------29.78-------
2024-05-25 07:24 pm NW 21.0 27.0----29.78- 45.7-----
2024-05-25 07:18 pm-------29.78-------
2024-05-25 07:12 pm-------29.78-------
2024-05-25 07:06 pm-------29.78-------
2024-05-25 07:00 pm-------29.78+0.02------
2024-05-25 06:54 pm-------29.78-------
2024-05-25 06:48 pm-------29.78-------
2024-05-25 06:42 pm-------29.78-------
2024-05-25 06:36 pm-------29.78-------
2024-05-25 06:30 pm-------29.78-------
2024-05-25 06:24 pm NW 20.0 25.1----29.78- 45.9-----
2024-05-25 06:18 pm-------29.78-------
2024-05-25 06:12 pm-------29.78-------
2024-05-25 06:06 pm-------29.78-------
2024-05-25 06:00 pm-------29.78+0.03------
2024-05-25 05:54 pm-------29.78-------
2024-05-25 05:48 pm-------29.78-------
2024-05-25 05:42 pm-------29.78-------
2024-05-25 05:36 pm-------29.78-------
2024-05-25 05:30 pm-------29.78-------
2024-05-25 05:24 pmNNW 21.0 25.1----29.77- 47.7-----
2024-05-25 05:18 pm-------29.76-------
2024-05-25 05:12 pm-------29.77-------
2024-05-25 05:06 pm-------29.77-------
2024-05-25 05:00 pm-------29.77+0.01------
2024-05-25 04:54 pm-------29.77-------
2024-05-25 04:48 pm-------29.77-------
2024-05-25 04:42 pm-------29.77-------
2024-05-25 04:36 pm-------29.77-------
2024-05-25 04:30 pm-------29.77-------
2024-05-25 04:24 pm NW 22.9 28.0----29.76- 45.3-----
2024-05-25 04:18 pm-------29.77-------
2024-05-25 04:12 pm-------29.76-------
2024-05-25 04:06 pm-------29.76-------
2024-05-25 04:00 pm-------29.76+0.02------
2024-05-25 03:54 pm-------29.77-------
2024-05-25 03:48 pm-------29.76-------
2024-05-25 03:42 pm-------29.76-------
2024-05-25 03:36 pm-------29.76-------
2024-05-25 03:30 pm-------29.76-------
2024-05-25 03:24 pmNNW 19.0 27.0----29.76-------
2024-05-25 03:00 pm-------29.76+0.02------
2024-05-25 02:54 pm-------29.76-------
2024-05-25 02:48 pm-------29.75-------
2024-05-25 02:42 pm-------29.75-------
2024-05-25 02:36 pm-------29.76-------
2024-05-25 02:30 pm-------29.76-------
2024-05-25 02:24 pm NW 22.0 26.0----29.76- 44.4-----
2024-05-25 02:18 pm-------29.76-------
2024-05-25 02:12 pm-------29.76-------
2024-05-25 02:06 pm-------29.76-------
2024-05-25 02:00 pm-------29.75+0.00------
2024-05-25 01:54 pm-------29.75-------
2024-05-25 01:48 pm-------29.75-------
2024-05-25 01:42 pm-------29.75-------
2024-05-25 01:36 pm-------29.75-------
2024-05-25 01:30 pm-------29.75-------
2024-05-25 01:24 pm NW 22.9 27.0----29.75- 42.8-----
2024-05-25 01:18 pm-------29.75-------
2024-05-25 01:12 pm-------29.75-------
2024-05-25 01:06 pm-------29.75-------
2024-05-25 01:00 pm-------29.75+0.00------
2024-05-25 12:54 pm-------29.74-------
2024-05-25 12:48 pm-------29.74-------
2024-05-25 12:42 pm-------29.74-------
2024-05-25 12:36 pm-------29.74-------
2024-05-25 12:30 pm-------29.74-------
2024-05-25 12:24 pm NW 19.0 24.1----29.74- 42.3-----
2024-05-25 12:18 pm-------29.74-------
2024-05-25 12:12 pm-------29.74-------
2024-05-25 12:06 pm-------29.74-------
2024-05-25 12:00 pm-------29.74+0.01------
2024-05-25 11:54 am-------29.74-------
2024-05-25 11:48 am-------29.74-------
2024-05-25 11:42 am-------29.74-------
2024-05-25 11:36 am-------29.74-------
2024-05-25 11:30 am-------29.75-------
2024-05-25 11:24 amNNW 13.0 15.9----29.75-------
2024-05-25 11:18 am-------29.75-------
2024-05-25 11:12 am-------29.75-------
2024-05-25 11:06 am-------29.75-------
2024-05-25 11:00 am-------29.75+0.02------
2024-05-25 10:54 am-------29.75-------